When you browse on this site, cookies collect data to enhance your experience and personalize the content and advertising you see.
Visit our Privacy Policy to learn more. By continuing to use the site, you agree to this use of cookies and data.
  • In Spain
  • List of Countries
  • For 7 days
  • Water Temperature
  • Weather Map
  • Weather Widgets
  • user-avatar
    Login

    Hourly Weather Gvozdevicy

    Today, 31 May, Sunday

    Time Temperature Precipitation Wind Pressure Humidity
    00:00 +14°C° 0.9 mm 7 mps 738 mmHg 83%
    01:00 +12°C° 0.9 mm 7 mps 738 mmHg 88%
    02:00 +11°C° 0 mm 6 mps 739 mmHg 92%
    03:00 +11°C° 1.3 mm 6 mps 739 mmHg 93%
    04:00 +10°C° 1.3 mm 7 mps 739 mmHg 94%
    05:00 +10°C° 1.3 mm 7 mps 739 mmHg 95%
    06:00 +10°C° 1.5 mm 7 mps 739 mmHg 94%
    07:00 +10°C° 1.5 mm 7 mps 740 mmHg 94%
    08:00 +10°C° 0 mm 7 mps 740 mmHg 93%
    09:00 +10°C° 0.4 mm 6 mps 741 mmHg 90%
    10:00 +11°C° 0.4 mm 6 mps 741 mmHg 87%
    11:00 +12°C° 0.4 mm 5 mps 741 mmHg 85%
    12:00 +14°C° 0 mm 6 mps 741 mmHg 77%
    13:00 +15°C° 0 mm 6 mps 742 mmHg 69%
    14:00 +16°C° 0 mm 7 mps 742 mmHg 61%
    15:00 +16°C° 0.1 mm 6 mps 742 mmHg 64%
    16:00 +15°C° 0.1 mm 6 mps 742 mmHg 68%
    17:00 +14°C° 0.1 mm 5 mps 742 mmHg 72%
    18:00 +13°C° 0.1 mm 5 mps 742 mmHg 73%
    19:00 +12°C° 0.1 mm 5 mps 743 mmHg 75%
    20:00 +10°C° 0.1 mm 5 mps 743 mmHg 76%
    21:00 +9°C° 0 mm 5 mps 743 mmHg 75%
    22:00 +7°C° 0 mm 4 mps 743 mmHg 74%
    23:00 +6°C° 0 mm 4 mps 743 mmHg 74%

    Tomorrow, 1 June, Monday

    Time Temperature Precipitation Wind Pressure Humidity
    00:00 +6°C° 0 mm 4 mps 743 mmHg 74%
    01:00 +5°C° 0 mm 5 mps 744 mmHg 75%
    02:00 +3°C° 0 mm 5 mps 744 mmHg 76%
    03:00 +3°C° 0 mm 5 mps 744 mmHg 77%
    04:00 +3°C° 0 mm 5 mps 743 mmHg 78%
    05:00 +3°C° 0 mm 5 mps 743 mmHg 80%
    06:00 +4°C° 0 mm 6 mps 743 mmHg 76%
    07:00 +5°C° 0 mm 6 mps 743 mmHg 72%
    08:00 +6°C° 0 mm 7 mps 744 mmHg 69%
    09:00 +6°C° 0 mm 7 mps 743 mmHg 72%
    10:00 +7°C° 0 mm 6 mps 743 mmHg 76%
    11:00 +7°C° 0 mm 6 mps 743 mmHg 79%
    12:00 +7°C° 0.1 mm 6 mps 743 mmHg 79%
    13:00 +6°C° 0.1 mm 7 mps 743 mmHg 79%
    14:00 +8°C° 0.1 mm 7 mps 743 mmHg 78%
    15:00 +8°C° 0 mm 7 mps 742 mmHg 78%
    16:00 +8°C° 0 mm 7 mps 742 mmHg 78%
    17:00 +8°C° 0 mm 7 mps 742 mmHg 78%
    18:00 +8°C° 0.1 mm 7 mps 741 mmHg 79%
    19:00 +8°C° 0.1 mm 7 mps 741 mmHg 81%
    20:00 +8°C° 0.1 mm 7 mps 741 mmHg 82%
    21:00 +8°C° 0.4 mm 7 mps 740 mmHg 84%
    22:00 +8°C° 0.4 mm 7 mps 740 mmHg 86%
    23:00 +7°C° 0.4 mm 8 mps 739 mmHg 88%

    Day after tomorrow, 2 June, Tuesday

    Time Temperature Precipitation Wind Pressure Humidity
    00:00 +7°C° 1.5 mm 8 mps 739 mmHg 90%
    01:00 +6°C° 1.5 mm 8 mps 738 mmHg 92%
    02:00 +6°C° 1.5 mm 8 mps 738 mmHg 94%
    03:00 +6°C° 1.5 mm 8 mps 738 mmHg 94%
    04:00 +6°C° 1.5 mm 8 mps 737 mmHg 94%
    05:00 +6°C° 1.5 mm 9 mps 737 mmHg 94%
    06:00 +6°C° 0.9 mm 8 mps 737 mmHg 94%
    07:00 +7°C° 0.9 mm 8 mps 738 mmHg 94%
    08:00 +7°C° 0.9 mm 8 mps 738 mmHg 94%
    09:00 +7°C° 0.3 mm 8 mps 738 mmHg 94%
    10:00 +9°C° 0.3 mm 8 mps 739 mmHg 93%
    11:00 +9°C° 0.3 mm 8 mps 739 mmHg 93%
    12:00 +9°C° 0.2 mm 7 mps 739 mmHg 92%
    13:00 +9°C° 0.2 mm 7 mps 739 mmHg 92%
    14:00 +9°C° 0.2 mm 7 mps 739 mmHg 92%
    15:00 +9°C° 0.3 mm 6 mps 739 mmHg 93%
    16:00 +9°C° 0.3 mm 6 mps 739 mmHg 94%
    17:00 +9°C° 0.3 mm 5 mps 739 mmHg 94%
    18:00 +9°C° 0.1 mm 5 mps 739 mmHg 95%
    19:00 +10°C° 0.1 mm 4 mps 739 mmHg 95%
    20:00 +10°C° 0.1 mm 4 mps 739 mmHg 96%
    21:00 +9°C° 0 mm 3 mps 739 mmHg 97%
    22:00 +9°C° 0 mm 3 mps 739 mmHg 97%
    23:00 +8°C° 0 mm 2 mps 739 mmHg 98%

    3 June, Wednesday

    Time Temperature Precipitation Wind Pressure Humidity
    00:00 +8°C° 0 mm 2 mps 739 mmHg 98%
    01:00 +7°C° 0 mm 2 mps 739 mmHg 97%
    02:00 +7°C° 0 mm 2 mps 739 mmHg 97%
    03:00 +7°C° 0 mm 2 mps 739 mmHg 96%
    04:00 +7°C° 0 mm 2 mps 739 mmHg 96%
    05:00 +7°C° 0 mm 2 mps 739 mmHg 95%
    06:00 +9°C° 0 mm 3 mps 739 mmHg 91%
    07:00 +10°C° 0 mm 3 mps 739 mmHg 87%
    08:00 +12°C° 0 mm 3 mps 740 mmHg 83%
    09:00 +13°C° 0 mm 4 mps 739 mmHg 77%
    10:00 +14°C° 0 mm 4 mps 739 mmHg 71%
    11:00 +17°C° 0 mm 4 mps 739 mmHg 65%
    12:00 +17°C° 0.1 mm 4 mps 739 mmHg 65%
    13:00 +16°C° 0.1 mm 5 mps 739 mmHg 65%
    14:00 +16°C° 0.1 mm 5 mps 739 mmHg 66%
    15:00 +17°C° 0.3 mm 4 mps 738 mmHg 70%
    16:00 +17°C° 0.3 mm 4 mps 738 mmHg 75%
    17:00 +16°C° 0.3 mm 3 mps 738 mmHg 80%
    18:00 +14°C° 0.8 mm 3 mps 738 mmHg 85%
    19:00 +14°C° 0.8 mm 2 mps 738 mmHg 91%
    20:00 +12°C° 0.8 mm 2 mps 738 mmHg 96%
    21:00 +12°C° 0.1 mm 2 mps 738 mmHg 96%
    22:00 +12°C° 0.1 mm 2 mps 738 mmHg 96%
    23:00 +12°C° 0.1 mm 2 mps 738 mmHg 96%

    4 June, Thursday

    Time Temperature Precipitation Wind Pressure Humidity
    00:00 +10°C° 0 mm 2 mps 738 mmHg 96%
    01:00 +10°C° 0 mm 2 mps 738 mmHg 96%
    02:00 +10°C° 0 mm 2 mps 737 mmHg 96%
    03:00 +11°C° 0 mm 1 mps 737 mmHg 96%
    04:00 +10°C° 0 mm 1 mps 737 mmHg 96%
    05:00 +10°C° 0 mm 1 mps 737 mmHg 97%
    06:00 +12°C° 0 mm 1 mps 737 mmHg 92%
    07:00 +13°C° 0 mm 1 mps 737 mmHg 87%
    08:00 +15°C° 0 mm 1 mps 736 mmHg 83%
    09:00 +15°C° 0.2 mm 2 mps 736 mmHg 79%
    10:00 +16°C° 0.2 mm 2 mps 736 mmHg 76%
    11:00 +17°C° 0.2 mm 3 mps 736 mmHg 73%
    12:00 +17°C° 0.5 mm 3 mps 736 mmHg 74%
    13:00 +17°C° 0.5 mm 3 mps 736 mmHg 75%
    14:00 +17°C° 0.5 mm 3 mps 735 mmHg 76%
    15:00 +17°C° 0.5 mm 3 mps 735 mmHg 77%
    16:00 +17°C° 0.5 mm 3 mps 735 mmHg 79%
    17:00 +17°C° 0.5 mm 3 mps 735 mmHg 81%
    18:00 +14°C° 0.4 mm 3 mps 735 mmHg 84%
    19:00 +13°C° 0.4 mm 3 mps 735 mmHg 88%
    20:00 +13°C° 0.4 mm 2 mps 734 mmHg 92%
    21:00 +12°C° 0 mm 2 mps 735 mmHg 92%
    22:00 +10°C° 0 mm 2 mps 735 mmHg 93%
    23:00 +9°C° 0 mm 2 mps 735 mmHg 93%

    5 June, Friday

    Time Temperature Precipitation Wind Pressure Humidity
    00:00 +9°C° 0 mm 2 mps 735 mmHg 94%
    01:00 +8°C° 0 mm 2 mps 735 mmHg 95%
    02:00 +8°C° 0 mm 3 mps 734 mmHg 96%
    03:00 +8°C° 0 mm 3 mps 734 mmHg 96%
    04:00 +8°C° 0 mm 3 mps 735 mmHg 96%
    05:00 +9°C° 0 mm 3 mps 735 mmHg 96%
    06:00 +10°C° 0 mm 3 mps 735 mmHg 93%
    07:00 +12°C° 0 mm 4 mps 735 mmHg 89%
    08:00 +13°C° 0 mm 4 mps 735 mmHg 85%
    09:00 +15°C° 0 mm 4 mps 735 mmHg 79%
    10:00 +17°C° 0 mm 4 mps 735 mmHg 73%
    11:00 +17°C° 0 mm 5 mps 735 mmHg 67%
    12:00 +17°C° 0.1 mm 5 mps 734 mmHg 67%
    13:00 +19°C° 0.1 mm 4 mps 734 mmHg 67%
    14:00 +19°C° 0.1 mm 4 mps 734 mmHg 66%
    15:00 +18°C° 0.3 mm 4 mps 734 mmHg 72%
    16:00 +17°C° 0.3 mm 4 mps 733 mmHg 78%
    17:00 +17°C° 0.3 mm 4 mps 733 mmHg 84%
    18:00 +15°C° 0.4 mm 4 mps 733 mmHg 88%
    19:00 +14°C° 0.4 mm 4 mps 733 mmHg 93%
    20:00 +13°C° 0.4 mm 4 mps 733 mmHg 97%
    21:00 +13°C° 0.5 mm 4 mps 733 mmHg 97%
    22:00 +13°C° 0.5 mm 4 mps 733 mmHg 97%
    23:00 +12°C° 0.5 mm 4 mps 733 mmHg 96%
    Show more